Flag for Germany Weather past 2 weeks in Schwäbisch Gmünd, Baden-Württemberg, Germany

Now
46 °F

Overcast.


Feels Like: 42 °F
Forecast: 36 / 45 °F
Wind: 9 mph from West

Location: Stoetten

Current Time: Dec 19, 2014 at 3:49:42 PM

Latest Report: Dec 19, 2014 at 3:00 PM


Visibility: 47 mi

Pressure: 30.05 "Hg

Humidity: 78%

Dew point: 40 °F

Location of Schwäbisch GmündLocation

Historic Weather in Schwäbisch Gmünd — Graph

°F

Schwäbisch Gmünd temperature yesterday

Maximum temperature yesterday: 49 °F (at 10:00 PM)
Minimum temperature yesterday: 39 °F (at 6:00 AM)
Average temperature yesterday: 43 °F

Past Weeks' High & Low Weather Summary

 TemperatureHumidityPressure
High49 °F (Dec 13, 3:00 PM)100% (Dec 4, 2:00 PM)30.49 "Hg (Dec 4, 2:00 PM)
Low27 °F (Dec 10, 4:00 AM)63% (Dec 12, 11:00 PM)29.78 "Hg (Dec 12, 8:00 PM)
Average37 °F92%30.08 "Hg
* Reported Dec 4 2:00 PM — Dec 19 2:00 PM, Schwäbisch Gmünd, Weather by CustomWeather, © 2014

Note: Actual official high and low records may vary slightly from our data, if they occured in-between our weather recording intervals... More about our weather records

Advertising

Schwäbisch Gmünd weather history for previous 24 hours

 ConditionsComfort  
Time TempWeatherWind HumidityBarometerVisibility
2:00 PM
Dec 19
46 °FOvercast.8 mph80%30.06 "Hg47 mi
1:00 PM46 °FOvercast.10 mph83%30.08 "Hg47 mi
12:00 PM47 °FOvercast.10 mph79%30.09 "Hg47 mi
11:00 AM47 °FOvercast.7 mph82%30.10 "Hg47 mi
10:00 AM46 °FOvercast.8 mph80%30.10 "Hg47 mi
9:00 AM45 °FOvercast.9 mph83%30.11 "Hg47 mi
8:00 AM45 °FPassing clouds.9 mph84%30.11 "Hg47 mi
7:00 AM45 °FOvercast.10 mph84%30.12 "Hg47 mi
6:00 AM46 °FOvercast.10 mph82%30.12 "Hg47 mi
5:00 AM46 °FOvercast.13 mph80%30.13 "Hg43 mi
4:00 AM45 °FOvercast.10 mph84%30.15 "Hg43 mi
3:00 AM46 °FOvercast.16 mph84%30.14 "Hg43 mi
2:00 AM47 °FOvercast.12 mph86%30.13 "Hg43 mi
1:00 AM47 °FOvercast.10 mph90%30.14 "Hg43 mi
12:00 AM48 °FOvercast.12 mph88%30.13 "Hg43 mi
11:00 PM
Dec 18
49 °FLow clouds.13 mph93%30.11 "Hg43 mi
10:00 PM49 °FLow clouds.14 mph94%30.10 "Hg43 mi
9:00 PM48 °FOvercast.12 mph95%30.08 "Hg47 mi
8:00 PM48 °FLight rain. Low clouds.12 mph97%30.07 "Hg7 mi
7:00 PM47 °FLight rain. Low clouds.9 mph100%30.07 "Hg1 mi
6:00 PM47 °FRain. Low clouds.10 mph96%30.05 "Hg1 mi
5:00 PM46 °FRain. Low clouds.10 mph99%30.04 "Hg1 mi
4:00 PM46 °FRain. Low clouds.10 mph99%30.03 "Hg1 mi
3:00 PM46 °FRain. Low clouds.10 mph99%30.01 "Hg1 mi
Weather by CustomWeather, © 2014

See weather overviewHow to use our weather pages